FLOCK 4S-6 (47518 NORAD) Tracking and Keplerian Element Data

This shows tracking and keplerian element data for the satellite.

Feedback or suggestion? Click here.




ElementValue
Catalog47518
NameFLOCK 4S-6
Epoch Orbit1295
Epoch Day101.906975
Epoch Year2021
RAAN164.1685
Inclination97.4927
Eccentricity0.0008375
Argument of Perigee354.1303
Mean Anonmoly5.9828
Mean Motion15.11978871
Decay Rate2.079E-05
L11 47518U 21006DJ 21101.90697500 .00002079 00000-0 12482-3 0 9993
L22 47518 97.4927 164.1685 0008375 354.1303 5.9828 15.11978871 12955

Live tracking and technical data element details for FLOCK 4S-6 (NORAD 47518). FLOCK 4S-6 can be tracked NOW for your location showing map with azimuth and elevation plus other details from your city location.

Track the satellite on the map from your city or location and see movement details for azimuth, elevation, latitude, longitude, range, height, and movement on the map or in text.







IsCatalogInMostPopularTable: catalog: 47518, numindb: 15
Update: records affected: 1



GetName: 47518 FLOCK 4S-6

Hit Count: updated at: Tue, 13 Apr 2021 04:26:19 GMT